DW7787 Weather Reports


Display with metric or nautical units.
time (UTC)temp
F
wind
direction
speed
MPH
gust
MPH
rain 1hr
in
rain 24hr
in
rain mn
in
humidity
%
barometer
mb
20260905194203 78 227 1.0 2.0 0.01 0.01 0.01 80 1012.9
20260905193700 78 319 1.0 2.0 0.01 0.01 0.01 79 1013.0
20260905193201 78 32 1.0 2.0 0.01 0.01 0.01 77 1012.9
20260905192702 79 13 0.0 2.0 0.01 0.01 0.01 76 1013.1
20260905192202 79 223 0.0 2.0 0.01 0.01 0.01 76 1013.0
20260905191703 79 223 1.0 4.0 0.01 0.01 0.01 75 1012.6
20260905191202 80 74 1.0 4.0 0.01 0.01 0.01 73 1012.6
20260905190658 81 92 2.0 6.0 0.01 0.01 0.01 73 1012.4
20260905190448 82 56 3.0 8.0 0.01 0.01 0.01 70 1012.7
20260905185645 84 65 3.0 8.0 0.01 0.01 0.01 65 1012.8
20260905185140 87 65 3.0 15.0 0.00 0.00 0.00 57 1012.5
20260905184636 89 117 4.0 15.0 0.00 0.00 0.00 51 1013.3
20260905184135 92 31 5.0 17.0 0.00 0.00 0.00 47 1013.5
20260905183635 95 239 5.0 17.0 0.00 0.00 0.00 43 1013.7
20260905183245 98 32 2.0 8.0 0.00 0.00 0.00 46 1012.6
20260905183221 98 280 3.0 10.0 0.00 0.00 0.00 46 1013.3
20260905182135 98 88 2.0 8.0 0.00 0.00 0.00 47 1012.4
20260905181636 98 325 2.0 9.0 0.00 0.00 0.00 47 1012.4
20260905181435 97 256 2.0 9.0 0.00 0.00 0.00 47 1012.6
20260905180634 98 168 2.0 5.0 0.00 0.00 0.00 47 1012.7
20260905180134 98 59 2.0 9.0 0.00 0.00 0.00 47 1012.8
20260905175633 98 97 2.0 9.0 0.00 0.00 0.00 46 1013.1
20260905175427 97 355 1.0 8.0 0.00 0.00 0.00 48 1013.1
20260905174631 97 54 2.0 10.0 0.00 0.00 0.00 47 1013.3
20260905174130 97 157 2.0 10.0 0.00 0.00 0.00 48 1013.3
20260905173633 97 350 2.0 5.0 0.00 0.00 0.00 48 1013.5
20260905173133 97 97 2.0 7.0 0.00 0.00 0.00 48 1013.4
20260905172632 97 67 2.0 7.0 0.00 0.00 0.00 47 1013.6
20260905172133 97 325 2.0 10.0 0.00 0.00 0.00 47 1013.8
20260905171631 97 318 3.0 10.0 0.00 0.00 0.00 47 1013.8
20260905171128 97 233 2.0 8.0 0.00 0.00 0.00 47 1014.0
20260905170629 96 247 2.0 7.0 0.00 0.00 0.00 46 1013.9
20260905170129 96 217 2.0 5.0 0.00 0.00 0.00 48 1014.0
20260905165630 96 90 2.0 6.0 0.00 0.00 0.00 49 1014.0
20260905165128 95 317 2.0 8.0 0.00 0.00 0.00 49 1014.0
20260905164629 95 201 2.0 8.0 0.00 0.00 0.00 49 1014.3
20260905164129 94 13 2.0 7.0 0.00 0.00 0.00 51 1014.4
20260905163629 94 22 2.0 7.0 0.00 0.00 0.00 51 1014.5
20260905163130 94 266 1.0 7.0 0.00 0.00 0.00 51 1014.6
20260905162634 93 223 1.0 5.0 0.00 0.00 0.00 52 1014.7
20260905162423 92 210 1.0 5.0 0.00 0.00 0.00 54 1014.7
20260905161921 92 15 1.0 5.0 0.00 0.00 0.00 56 1014.7
20260905161220 91 240 1.0 4.0 0.00 0.00 0.00 59 1014.7
20260905161204 92 346 1.0 5.0 0.00 0.00 0.00 58 1014.8
20260905160131 91 94 1.0 4.0 0.00 0.00 0.00 61 1014.7
20260905155628 90 198 2.0 4.0 0.00 0.00 0.00 60 1014.7
20260905155127 90 201 1.0 4.0 0.00 0.00 0.00 62 1014.8
20260905154628 90 51 1.0 4.0 0.00 0.00 0.00 65 1014.8
20260905154127 89 346 1.0 4.0 0.00 0.00 0.00 65 1014.9
20260905153627 89 67 1.0 3.0 0.00 0.00 0.00 69 1014.8
20260905153420 88 224 1.0 3.0 0.00 0.00 0.00 70 1014.8
20260905152628 88 326 1.0 4.0 0.00 0.00 0.00 71 1014.7
20260905152127 87 0 1.0 4.0 0.00 0.00 0.00 71 1014.8
20260905151626 87 329 1.0 4.0 0.00 0.00 0.00 73 1015.0
20260905151419 86 327 1.0 3.0 0.00 0.00 0.00 73 1014.9
20260905150623 86 245 1.0 3.0 0.00 0.00 0.00 73 1014.9
20260905150122 86 297 1.0 3.0 0.00 0.00 0.00 74 1014.9
20260905145623 85 284 1.0 3.0 0.00 0.00 0.00 75 1014.9
20260905145413 85 342 1.0 4.0 0.00 0.00 0.00 76 1014.9
20260905144622 85 0 1.0 4.0 0.00 0.00 0.00 76 1014.8
20260905144123 84 56 1.0 4.0 0.00 0.00 0.00 77 1014.8
20260905143624 84 186 1.0 4.0 0.00 0.00 0.00 78 1014.8
20260905143122 83 221 1.0 4.0 0.00 0.00 0.00 78 1014.9
20260905142624 83 22 1.0 2.0 0.00 0.00 0.00 79 1014.9
20260905142120 83 175 1.0 2.0 0.00 0.00 0.00 79 1014.9
20260905141619 82 233 1.0 4.0 0.00 0.00 0.00 79 1015.0
20260905141119 82 348 1.0 4.0 0.00 0.00 0.00 81 1015.0
20260905140620 82 19 1.0 3.0 0.00 0.00 0.00 81 1015.1
20260905140120 81 217 1.0 3.0 0.00 0.00 0.00 82 1015.0
20260905135619 81 191 1.0 4.0 0.00 0.00 0.00 83 1015.0
20260905135119 80 194 1.0 4.0 0.00 0.00 0.00 84 1015.0
20260905134619 80 34 1.0 2.0 0.00 0.00 0.00 85 1015.0
20260905134119 80 260 1.0 3.0 0.00 0.00 0.00 85 1015.1
20260905133908 79 183 1.0 3.0 0.00 0.00 0.00 86 1015.0
20260905133112 79 26 1.0 2.0 0.00 0.00 0.00 87 1015.1
20260905132907 78 223 1.0 2.0 0.00 0.00 0.00 88 1015.1
20260905132112 78 325 1.0 3.0 0.00 0.00 0.00 89 1014.9
20260905131609 78 350 1.0 4.0 0.00 0.00 0.00 89 1015.0
20260905131108 77 265 0.0 4.0 0.00 0.00 0.00 90 1015.0
20260905130608 77 296 0.0 3.0 0.00 0.00 0.00 91 1015.0
20260905130108 77 250 0.0 3.0 0.00 0.00 0.00 92 1015.0
20260905125901 76 261 0.0 2.0 0.00 0.00 0.00 93 1015.2
20260905125106 76 198 0.0 2.0 0.00 0.00 0.00 93 1015.3
20260905124608 76 302 0.0 2.0 0.00 0.00 0.00 93 1015.3
20260905124403 76 275 0.0 1.0 0.00 0.00 0.00 93 1015.2
20260905123607 76 235 0.0 1.0 0.00 0.00 0.00 93 1015.2
20260905123108 75 179 0.0 2.0 0.00 0.00 0.00 93 1015.2
20260905122608 75 156 0.0 2.0 0.00 0.00 0.00 93 1015.2
20260905122359 75 26 0.0 2.0 0.00 0.00 0.00 93 1015.2
20260905121606 75 26 0.0 2.0 0.00 0.00 0.00 93 1015.2
20260905121103 74 26 0.0 1.0 0.00 0.00 0.00 92 1015.3
20260905120603 74 26 0.0 1.0 0.00 0.00 0.00 92 1015.3
20260905120153 74 26 0.0 0.0 0.00 0.00 0.00 91 1015.2
20260905120136 74 26 0.0 1.0 0.00 0.00 0.00 92 1015.3
20260905115047 74 26 0.0 0.0 0.00 0.00 0.00 91 1015.1
20260905114633 74 26 0.0 1.0 0.00 0.00 0.00 91 1014.9
20260905114616 74 26 0.0 1.0 0.00 0.00 0.00 91 1014.9
20260905113540 74 26 0.0 1.0 0.00 0.00 0.00 91 1014.9
20260905113036 74 26 0.0 1.0 0.00 0.00 0.00 90 1014.8
20260905112535 74 26 0.0 1.0 0.00 0.00 0.00 90 1014.7
20260905112331 74 26 0.0 0.0 0.00 0.00 0.00 90 1014.7
20260905111530 74 26 0.0 0.0 0.00 0.00 0.00 90 1014.5
20260905111032 74 26 0.0 1.0 0.00 0.00 0.00 90 1014.4
20260905110535 74 26 0.0 1.0 0.00 0.00 0.00 90 1014.3
20260905110314 74 26 0.0 0.0 0.00 0.00 0.00 90 1014.2
20260905105529 74 26 0.0 0.0 0.00 0.00 0.00 89 1014.2
20260905105030 74 26 0.0 0.0 0.00 0.00 0.00 89 1014.2
20260905104530 75 26 0.0 1.0 0.00 0.00 0.00 89 1013.9
20260905104030 75 26 0.0 1.0 0.00 0.00 0.00 89 1013.9
20260905103919 75 26 0.0 1.0 0.00 0.00 0.00 89 1013.8
20260905103031 75 26 0.0 1.0 0.00 0.00 0.00 89 1013.7
20260905102925 75 26 0.0 1.0 0.00 0.00 0.00 89 1013.7
20260905102030 75 26 0.0 1.0 0.00 0.00 0.00 88 1013.7
20260905101532 75 26 0.0 1.0 0.00 0.00 0.00 88 1013.8
20260905101037 75 26 0.0 1.0 0.00 0.00 0.00 88 1013.7
20260905100527 75 26 0.0 1.0 0.00 0.00 0.00 88 1013.7
20260905100023 75 26 0.0 1.0 0.00 0.00 0.00 88 1013.6
20260905095520 76 26 0.0 0.0 0.00 0.00 0.00 88 1013.7
20260905095011 76 26 0.0 1.0 0.00 0.00 0.00 87 1013.7
20260905094733 76 26 0.0 1.0 0.00 0.00 0.00 87 1013.8
20260905094009 76 26 0.0 0.0 0.00 0.00 0.00 87 1013.8
20260905093510 76 26 0.0 0.0 0.00 0.00 0.00 87 1013.8
20260905093010 76 26 0.0 0.0 0.00 0.00 0.00 86 1013.9
20260905092505 76 26 0.0 0.0 0.00 0.00 0.00 86 1013.9
20260905092002 76 26 0.0 0.0 0.00 0.00 0.00 86 1013.9
20260905091502 76 26 0.0 0.0 0.00 0.00 0.00 86 1013.9
20260905091329 77 26 0.0 0.0 0.00 0.00 0.00 86 1014.0
20260905090504 77 26 0.0 0.0 0.00 0.00 0.00 86 1013.8
20260905090002 77 26 0.0 1.0 0.00 0.00 0.00 86 1013.9
20260905085513 77 26 0.0 1.0 0.00 0.00 0.00 86 1013.9
20260905085006 77 26 0.0 1.0 0.00 0.00 0.00 86 1013.9
20260905084501 77 26 0.0 1.0 0.00 0.00 0.00 86 1013.9
20260905084003 77 26 0.0 1.0 0.00 0.00 0.00 86 1014.0
20260905083823 77 355 0.0 2.0 0.00 0.00 0.00 86 1014.2
20260905083331 77 342 0.0 2.0 0.00 0.00 0.00 86 1014.0
20260905082503 77 322 0.0 1.0 0.00 0.00 0.00 86 1014.2
20260905082000 77 321 0.0 1.0 0.00 0.00 0.00 86 1014.2
20260905081913 78 322 0.0 0.0 0.00 0.00 0.00 85 1014.2
20260905080948 78 322 0.0 1.0 0.00 0.00 0.00 85 1014.0
20260905080442 78 322 0.0 1.0 0.00 0.00 0.00 85 1014.2
20260905075932 78 321 0.0 1.0 0.00 0.00 0.00 84 1014.3
20260905075436 78 322 0.0 1.0 0.00 0.00 0.00 85 1014.3
20260905074930 78 322 0.0 1.0 0.00 0.00 0.00 85 1014.3
20260905074433 78 302 0.0 0.0 0.00 0.00 0.00 84 1014.4
20260905073940 78 302 0.0 0.0 0.00 0.00 0.00 84 1014.6
20260905073758 78 302 0.0 0.0 0.00 0.00 0.00 84 1014.6
20260905072931 78 302 0.0 0.0 0.00 0.00 0.00 83 1014.5
20260905072431 79 302 0.0 0.0 0.00 0.00 0.00 83 1014.6
20260905072243 79 302 0.0 0.0 0.00 0.00 0.00 83 1014.6
20260905071429 79 302 0.0 0.0 0.00 0.00 0.00 83 1014.6
20260905070926 79 302 0.0 0.0 0.00 0.00 0.00 83 1014.6
20260905070427 79 302 0.0 0.0 0.00 0.00 0.00 82 1014.7
20260905070243 79 302 0.0 0.0 0.00 0.00 0.00 82 1014.7
20260905065422 79 302 0.0 0.0 0.00 0.00 0.00 82 1014.8
20260905064924 79 302 0.0 0.0 0.00 0.00 0.00 81 1014.9
20260905064420 79 302 0.0 1.0 0.00 0.00 0.00 81 1014.9
20260905064247 80 302 0.0 1.0 0.00 0.00 0.00 81 1014.8
20260905063421 80 302 0.0 1.0 0.00 0.00 0.00 81 1015.0
20260905062923 80 302 0.0 1.0 0.00 0.00 0.00 81 1015.0
20260905062416 80 302 0.0 0.0 0.00 0.00 0.00 81 1015.1
20260905061916 80 302 0.0 0.0 0.00 0.00 0.00 80 1015.1
20260905061413 80 302 0.0 0.0 0.00 0.00 0.00 80 1015.2
20260905060917 80 302 0.0 0.0 0.00 0.00 0.00 80 1015.4
20260905060413 80 302 0.0 0.0 0.00 0.00 0.00 79 1015.4
20260905055911 81 302 0.0 0.0 0.00 0.00 0.00 79 1015.4
20260905055411 81 302 0.0 0.0 0.00 0.00 0.00 79 1015.5
20260905054912 81 302 0.0 0.0 0.00 0.00 0.00 78 1015.4
20260905054411 81 302 0.0 1.0 0.00 0.00 0.00 79 1015.6
20260905053910 81 302 0.0 1.0 0.00 0.00 0.00 79 1015.6
20260905053412 81 302 0.0 1.0 0.00 0.00 0.00 78 1015.7
20260905052907 81 324 0.0 1.0 0.00 0.00 0.00 78 1015.6
20260905052408 81 317 0.0 1.0 0.00 0.00 0.00 78 1015.7
20260905051906 81 317 0.0 1.0 0.00 0.00 0.00 78 1015.7
20260905051710 80 317 0.0 1.0 0.00 0.00 0.00 78 1015.7
20260905050912 80 317 0.0 1.0 0.00 0.00 0.00 78 1015.8
20260905050408 80 317 0.0 1.0 0.00 0.00 0.00 78 1015.8
20260905050219 80 317 0.0 1.0 0.00 0.00 0.00 78 1015.8
20260905045407 80 317 0.0 1.0 0.00 0.00 0.00 78 1016.0
20260905044909 81 317 0.0 1.0 0.00 0.00 0.00 79 1016.0
20260905044715 81 317 0.0 0.0 0.00 0.00 0.00 78 1015.9
20260905044221 81 317 0.0 0.0 0.00 0.00 0.00 78 1016.0
20260905043402 81 317 0.0 0.0 0.00 0.00 0.00 77 1016.1
20260905042902 81 317 0.0 0.0 0.00 0.00 0.00 78 1016.0
20260905042402 81 317 0.0 0.0 0.00 0.00 0.00 78 1016.0
20260905041902 81 317 0.0 0.0 0.00 0.00 0.00 78 1016.0
20260905041704 81 317 0.0 0.0 0.00 0.00 0.00 77 1016.0
20260905041221 81 317 0.0 0.0 0.00 0.00 0.00 77 1015.9
20260905040405 81 317 0.0 1.0 0.00 0.00 0.00 77 1015.8
20260905035901 82 317 0.0 1.0 0.00 0.00 0.00 77 1015.8
20260905035354 82 317 0.0 1.0 0.00 0.00 0.00 77 1015.9
20260905034850 82 300 0.0 1.0 0.00 0.00 0.00 76 1015.8
20260905034714 82 300 0.0 0.0 0.00 0.00 0.00 76 1015.7
20260905034216 82 300 0.0 0.0 0.00 0.00 0.00 76 1015.8
20260905033349 82 300 0.0 0.0 0.00 0.00 0.00 76 1015.8
20260905032847 82 300 0.0 0.0 0.00 0.00 0.00 75 1015.8
20260905032348 82 300 0.0 0.0 0.00 0.00 0.00 76 1015.8
20260905031844 83 300 0.0 1.0 0.00 0.00 0.00 75 1015.6
20260905031543 83 300 0.0 0.0 0.00 0.00 0.00 73 1015.7
20260905031458 83 300 0.0 1.0 0.00 0.00 0.00 75 1015.5
20260905030341 83 300 0.0 1.0 0.00 0.00 0.00 73 1015.8
20260905025844 83 300 0.0 1.0 0.00 0.00 0.00 73 1015.7
20260905025344 84 300 0.0 1.0 0.00 0.00 0.00 73 1015.7
20260905024842 84 300 0.0 1.0 0.00 0.00 0.00 72 1015.8
20260905024340 84 300 0.0 0.0 0.00 0.00 0.00 71 1016.0
20260905023842 84 300 0.0 1.0 0.00 0.00 0.00 71 1015.9
20260905023340 84 300 0.0 1.0 0.00 0.00 0.00 71 1016.0
20260905022838 85 300 1.0 1.0 0.00 0.00 0.00 70 1015.9
20260905022333 85 300 1.0 1.0 0.00 0.00 0.00 70 1015.9
20260905021835 85 300 0.0 1.0 0.00 0.00 0.00 70 1015.8
20260905021336 85 300 0.0 0.0 0.00 0.00 0.00 69 1015.8
20260905021143 85 300 0.0 1.0 0.00 0.00 0.00 69 1015.8
20260905020341 85 300 0.0 2.0 0.00 0.00 0.00 69 1015.7
20260905015832 85 300 0.0 2.0 0.00 0.00 0.00 68 1015.8
20260905015333 85 300 0.0 2.0 0.00 0.00 0.00 68 1015.9
20260905015215 86 300 1.0 2.0 0.00 0.00 0.00 68 1015.9
20260905014331 86 5 1.0 2.0 0.00 0.00 0.00 68 1015.9
20260905013838 86 5 1.0 4.0 0.00 0.00 0.00 69 1015.9
20260905013335 86 0 1.0 4.0 0.00 0.00 0.00 69 1015.8
20260905012833 86 318 2.0 3.0 0.00 0.00 0.00 68 1015.7
20260905012333 87 51 2.0 3.0 0.00 0.00 0.00 68 1015.6
20260905011832 87 40 1.0 3.0 0.00 0.00 0.00 67 1015.7
20260905011326 87 63 1.0 3.0 0.00 0.00 0.00 67 1015.6
20260905010827 88 63 0.0 1.0 0.00 0.00 0.00 65 1015.4
20260905010326 88 63 0.0 1.0 0.00 0.00 0.00 65 1015.4
20260905005824 88 63 0.0 0.0 0.00 0.00 0.00 64 1015.3
20260905005322 89 63 0.0 0.0 0.00 0.00 0.00 64 1015.4
20260905004821 89 63 0.0 0.0 0.00 0.00 0.00 63 1015.3
20260905004322 89 63 0.0 0.0 0.00 0.00 0.00 62 1015.4
20260905003819 90 63 0.0 0.0 0.00 0.00 0.00 62 1015.5
20260905003644 90 63 0.0 0.0 0.00 0.00 0.00 61 1015.6
20260905002820 90 63 0.0 0.0 0.00 0.00 0.00 61 1015.7
20260905002612 91 63 0.0 0.0 0.00 0.00 0.00 60 1015.7
20260905001820 91 63 0.0 0.0 0.00 0.00 0.00 59 1015.6
20260905001317 91 63 0.0 0.0 0.00 0.00 0.00 58 1015.6
20260905000814 92 63 0.0 1.0 0.00 0.00 0.00 59 1015.5
20260905000318 92 63 0.0 1.0 0.00 0.00 0.00 59 1015.5
20260904235957 92 63 0.0 0.0 0.00 0.00 0.00 57 1015.4
20260904235923 92 63 0.0 0.0 0.00 0.00 0.00 58 1015.4
20260904234813 93 63 0.0 0.0 0.00 0.00 0.00 56 1015.4
20260904234318 93 63 0.0 0.0 0.00 0.00 0.00 56 1015.4
20260904234112 94 63 0.0 0.0 0.00 0.00 0.00 55 1015.4
20260904233313 94 63 0.0 0.0 0.00 0.00 0.00 55 1015.4
20260904232812 94 63 0.0 1.0 0.00 0.00 0.00 55 1015.3
20260904232318 94 63 0.0 1.0 0.00 0.00 0.00 54 1015.3
20260904231815 95 63 0.0 1.0 0.00 0.00 0.00 54 1015.2
20260904231314 95 63 0.0 1.0 0.00 0.00 0.00 53 1015.0
20260904230817 95 63 0.0 1.0 0.00 0.00 0.00 52 1015.1
20260904230314 96 63 0.0 2.0 0.00 0.00 0.00 52 1015.1
20260904230202 96 173 0.0 1.0 0.00 0.00 0.00 51 1015.0
20260904230157 96 63 0.0 2.0 0.00 0.00 0.00 51 1015.0
20260904224812 97 173 0.0 1.0 0.00 0.00 0.00 50 1014.9
20260904224459 98 211 1.0 2.0 0.00 0.00 0.00 48 1014.9
20260904224414 97 207 1.0 2.0 0.00 0.00 0.00 50 1014.9
20260904223306 98 205 1.0 2.0 0.00 0.00 0.00 48 1014.8
20260904222808 98 350 1.0 3.0 0.00 0.00 0.00 47 1015.0
20260904222552 98 217 1.0 2.0 0.00 0.00 0.00 48 1015.1
20260904222439 98 232 1.0 3.0 0.00 0.00 0.00 48 1015.0
20260904221305 98 200 1.0 2.0 0.00 0.00 0.00 47 1015.2
20260904220807 98 243 1.0 2.0 0.00 0.00 0.00 48 1015.1
20260904220307 98 36 0.0 2.0 0.00 0.00 0.00 47 1015.2
20260904215810 98 11 1.0 2.0 0.00 0.00 0.00 47 1015.1
20260904215307 98 11 1.0 2.0 0.00 0.00 0.00 48 1015.1
20260904214807 98 132 1.0 3.0 0.00 0.00 0.00 48 1015.2
20260904214305 98 174 1.0 3.0 0.00 0.00 0.00 47 1015.1
20260904213803 98 112 1.0 3.0 0.00 0.00 0.00 46 1015.3
20260904213304 98 126 1.0 3.0 0.00 0.00 0.00 48 1015.1
20260904212806 98 40 1.0 3.0 0.00 0.00 0.00 48 1015.1
20260904212306 97 205 1.0 3.0 0.00 0.00 0.00 49 1015.1
20260904211801 97 104 1.0 3.0 0.00 0.00 0.00 50 1015.0
20260904211300 97 127 2.0 3.0 0.00 0.00 0.00 50 1014.9
20260904210803 96 59 2.0 3.0 0.00 0.00 0.00 50 1014.9
20260904210606 97 113 2.0 4.0 0.00 0.00 0.00 50 1014.8
20260904205757 97 147 2.0 4.0 0.00 0.00 0.00 50 1015.0
20260904205250 97 126 2.0 4.0 0.00 0.00 0.00 51 1015.1
20260904204742 97 127 2.0 5.0 0.00 0.00 0.00 49 1015.1
20260904204236 98 130 2.0 5.0 0.00 0.00 0.00 49 1015.1
20260904203733 98 44 1.0 3.0 0.00 0.00 0.00 50 1015.2
20260904203534 98 157 2.0 3.0 0.00 0.00 0.00 48 1015.3
20260904202737 99 44 1.0 4.0 0.00 0.00 0.00 47 1015.3
20260904202233 99 120 1.0 4.0 0.00 0.00 0.00 47 1015.2
20260904201811 99 132 1.0 3.0 0.00 0.00 0.00 46 1015.3
20260904201806 98 83 2.0 3.0 0.00 0.00 0.00 48 1015.3
20260904201750 99 171 1.0 3.0 0.00 0.00 0.00 47 1015.2
20260904200231 100 185 1.0 3.0 0.00 0.00 0.00 46 1015.4
20260904195733 100 72 1.0 3.0 0.00 0.00 0.00 45 1015.5
20260904195231 100 141 1.0 4.0 0.00 0.00 0.00 46 1015.5
20260904195130 100 246 2.0 4.0 0.00 0.00 0.00 46 1015.7